Flag for Morocco Weather past 2 weeks in Rabat, Morocco

Now
61 °F

Passing clouds.


Feels Like: 61 °F
Forecast: 62 / 77 °F
Wind: 2 mph from Southeast

Location: Rabat-Sale

Current Time: Sep 23, 2014 at 6:10:46 AM

Latest Report: Sep 23, 2014 at 5:30 AM


Visibility: 3 mi

Pressure: 29.98 "Hg

Humidity: 94%

Dew point: 59 °F

Location of RabatLocation

Historic Weather in Rabat — Graph

°F

Rabat temperature yesterday

Maximum temperature yesterday: 77 °F (at 1:00 PM)
Minimum temperature yesterday: 63 °F (at 10:00 PM)
Average temperature yesterday: 70 °F

Past Weeks' High & Low Weather Summary

 TemperatureHumidityPressure
High82 °F (Sep 15, 11:30 AM)94% (Sep 8, 5:00 AM)30.09 "Hg (Sep 8, 5:00 AM)
Low61 °F (Sep 10, 3:00 AM)37% (Sep 16, 11:00 AM)29.74 "Hg (Sep 16, 6:00 AM)
Average72 °F76%29.97 "Hg
* Reported Sep 8 5:00 AM — Sep 23 5:00 AM, Rabat, Weather by CustomWeather, © 2014

Note: Actual official high and low records may vary slightly from our data, if they occured in-between our weather recording intervals... More about our weather records

Advertising

Rabat weather history for previous 24 hours

 ConditionsComfort  
Time TempWeatherWind HumidityBarometerVisibility
5:00 AM
Sep 23
63 °FPassing clouds.2 mph94%29.98 "Hg3 mi
4:30 AM61 °FPassing clouds.2 mph94%29.98 "Hg3 mi
4:00 AM63 °FPassing clouds.2 mph94%30.01 "Hg3 mi
3:30 AM61 °FPassing clouds.No wind94%30.01 "Hg3 mi
3:00 AM63 °FPassing clouds.1 mph88%30.01 "Hg4 mi
2:30 AM63 °FPassing clouds.3 mph94%30.01 "HgN/A
2:00 AM63 °FPassing clouds.2 mph94%30.04 "Hg5 mi
1:30 AM61 °FPassing clouds.No wind94%30.04 "HgN/A
12:30 AM63 °FPassing clouds.3 mph94%30.04 "HgN/A
12:00 AM63 °FPassing clouds.3 mph94%30.04 "HgN/A
11:30 PM
Sep 22
63 °FPassing clouds.No wind88%30.04 "HgN/A
11:00 PM63 °FPassing clouds.3 mph94%30.04 "HgN/A
10:30 PM63 °FPassing clouds.2 mph94%30.04 "HgN/A
10:00 PM63 °FPassing clouds.No wind94%30.04 "HgN/A
9:30 PM64 °FPassing clouds.2 mph88%30.04 "HgN/A
9:00 PM64 °FPassing clouds.1 mph88%30.04 "HgN/A
8:30 PM66 °FPassing clouds.No wind83%30.01 "HgN/A
8:00 PM70 °FPassing clouds.2 mph73%30.01 "Hg5 mi
7:30 PM72 °FPassing clouds.5 mph73%30.01 "Hg5 mi
7:00 PM73 °FScattered clouds.6 mph69%30.01 "Hg5 mi
6:30 PM73 °FScattered clouds.7 mph69%30.01 "Hg5 mi
6:00 PM73 °FScattered clouds.8 mph69%30.01 "Hg5 mi
5:30 PM75 °FScattered clouds.8 mph65%30.01 "Hg5 mi
5:00 PM75 °FScattered clouds.9 mph61%30.01 "Hg5 mi
4:30 PM75 °FScattered clouds.9 mph61%30.01 "Hg5 mi
4:00 PM75 °FScattered clouds.10 mph57%30.01 "Hg5 mi
3:30 PM77 °FScattered clouds.12 mph57%30.01 "Hg5 mi
3:00 PM77 °FScattered clouds.9 mph61%30.04 "Hg5 mi
2:30 PM77 °FScattered clouds.12 mph57%30.04 "Hg5 mi
2:00 PM75 °FScattered clouds.12 mph65%30.04 "Hg5 mi
1:30 PM77 °FScattered clouds.10 mph61%30.04 "Hg5 mi
1:00 PM77 °FScattered clouds.12 mph61%30.04 "Hg5 mi
12:30 PM75 °FScattered clouds.10 mph65%30.04 "Hg5 mi
12:00 PM75 °FScattered clouds.9 mph65%30.04 "Hg5 mi
11:30 AM75 °FScattered clouds.9 mph65%30.04 "Hg5 mi
11:00 AM75 °FScattered clouds.7 mph65%30.07 "Hg5 mi
10:30 AM72 °FBroken clouds.6 mph78%30.07 "Hg5 mi
10:00 AM73 °FBroken clouds.6 mph78%30.04 "Hg5 mi
9:30 AM72 °FScattered clouds.6 mph88%30.04 "Hg5 mi
9:00 AM72 °FScattered clouds.6 mph88%30.04 "Hg5 mi
8:30 AM68 °FBroken clouds.3 mph94%30.04 "Hg3 mi
8:00 AM68 °FRain showers. Broken clouds.5 mph94%30.04 "Hg2 mi
7:55 AM68 °FRain showers. Broken clouds.2 mph94%30.01 "Hg2 mi
7:30 AM68 °FFog.3 mph94%30.01 "Hg2 mi
7:00 AM68 °FPassing clouds.2 mph94%30.01 "Hg5 mi
6:30 AM68 °FPassing clouds.3 mph94%30.01 "Hg5 mi
6:00 AM68 °FPassing clouds.5 mph94%30.01 "Hg5 mi
Weather by CustomWeather, © 2014

See weather overviewHow to use our weather pages